period_start,C,m1,H,J0,J1,J2,J3,J4,J5,JA,JB,JC,JD,JJ,JK,JN,#
2013-10-07 00:00:06,0.04,0.07,0.00,23.45,26.47,29.00,5.94,29.83,998.58,2052.13,3524.98,3335.20,3628.97,350.08,318.16,1.02,0000 0000 0000 0000 000000
2013-10-07 00:01:06,0.11,0.07,0.00,23.45,26.47,28.95,5.84,29.67,998.56,2052.14,3524.66,3335.08,3628.77,349.99,317.76,1.02,0000 0000 0000 0000 000000
2013-10-07 00:02:06,0.09,0.07,0.00,23.46,26.47,29.01,5.70,29.42,998.56,2052.11,3524.28,3335.03,3628.38,350.69,317.57,1.03,0000 0000 0000 0000 000000
2013-10-07 00:03:06,0.08,0.07,0.00,23.47,26.47,29.01,5.90,29.63,998.57,2052.08,3524.10,3335.00,3628.16,350.16,317.86,1.04,0000 0000 0000 0000 000000
2013-10-07 00:04:07,0.03,0.07,0.00,23.48,26.47,29.07,5.77,29.54,998.55,2052.04,3523.99,3334.97,3628.05,349.84,317.56,1.04,0000 0000 0000 0000 000000
2013-10-07 00:05:07,-0.01,0.07,0.00,23.49,26.47,28.95,5.82,29.67,998.55,2052.04,3523.57,3334.94,3628.02,350.15,317.82,1.05,0000 0000 0000 0000 000000
2013-10-07 00:06:07,0.07,0.07,0.00,23.50,26.47,28.96,5.97,29.75,998.55,2052.10,3523.23,3334.81,3628.00,350.80,318.40,1.05,0000 0000 0000 0000 000000
2013-10-07 00:07:08,0.13,0.07,0.00,23.52,26.47,29.00,5.92,29.42,998.55,2052.13,3523.08,3334.39,3627.97,350.21,317.85,1.06,0000 0000 0000 0000 000000
2013-10-07 00:08:08,0.12,0.07,0.00,23.52,26.47,29.04,5.73,29.88,998.55,2052.13,3522.96,3334.15,3627.78,349.38,317.09,1.07,0000 0000 0000 0000 000000
2013-10-07 00:09:08,0.08,0.07,0.00,23.52,26.47,29.01,5.91,29.96,998.55,2052.07,3522.54,3334.06,3627.34,349.85,317.78,1.07,0000 0000 0000 0000 000000
2013-10-07 00:10:08,0.07,0.07,0.00,23.53,26.47,28.98,5.83,29.83,998.55,2052.06,3522.21,3334.02,3627.13,349.90,317.27,1.08,0000 0000 0000 0000 000000
2013-10-07 00:11:08,0.07,0.07,0.00,23.54,26.47,29.10,5.78,29.58,998.55,2052.09,3522.07,3333.99,3627.05,349.07,316.78,1.08,0000 0000 0000 0000 000000
2013-10-07 00:12:09,0.05,0.07,0.00,23.56,26.47,29.16,5.81,29.50,998.55,2052.12,3521.96,3333.93,3627.00,349.69,317.34,1.09,0000 0000 0000 0000 000000
2013-10-07 00:13:09,0.07,0.07,0.00,23.57,26.47,29.19,5.89,29.83,998.55,2052.20,3521.54,3333.71,3626.98,350.01,317.25,1.09,0000 0000 0000 0000 000000
2013-10-07 00:14:09,0.19,0.07,0.00,23.59,26.47,29.11,6.03,29.92,998.55,2052.21,3521.22,3333.33,3626.66,351.14,318.38,1.10,0000 0000 0000 0000 000000
2013-10-07 00:15:09,0.14,0.07,0.00,23.59,26.47,29.08,5.91,29.71,998.55,2052.26,3521.08,3333.11,3626.30,350.22,317.65,1.11,0000 0000 0000 0000 000000
2013-10-07 00:16:10,0.15,0.08,0.00,23.60,26.47,29.02,5.75,29.88,998.55,2052.27,3520.90,3333.04,3626.11,349.48,317.09,1.11,0000 0000 0000 0000 000000
2013-10-07 00:17:10,0.07,0.08,0.00,23.61,26.47,29.11,6.04,29.67,998.55,2052.34,3520.45,3333.00,3626.04,350.44,318.63,1.12,0000 0000 0000 0000 000000
2013-10-07 00:18:10,0.12,0.08,0.00,23.62,26.47,29.18,5.82,29.63,998.54,2052.38,3520.17,3332.97,3626.00,349.58,317.17,1.12,0000 0000 0000 0000 000000
2013-10-07 00:19:11,0.03,0.08,0.00,23.63,26.47,29.13,5.94,29.67,998.55,2052.33,3520.06,3332.77,3625.85,350.48,317.97,1.13,0000 0000 0000 0000 000000
2013-10-07 00:20:11,0.06,0.08,0.00,23.64,26.47,29.15,5.77,29.71,998.54,2052.25,3520.01,3332.41,3625.47,349.22,316.60,1.14,0000 0000 0000 0000 000000
2013-10-07 00:21:11,0.04,0.08,0.00,23.65,26.47,29.14,5.88,29.88,998.55,2052.26,3519.72,3332.18,3625.18,349.88,317.35,1.14,0000 0000 0000 0000 000000
2013-10-07 00:22:12,0.12,0.08,0.00,23.65,26.47,29.14,6.10,29.79,998.55,2052.25,3519.29,3332.07,3625.06,351.00,318.42,1.15,0000 0000 0000 0000 000000
2013-10-07 00:23:12,0.08,0.08,0.00,23.65,26.47,29.07,5.83,29.79,998.52,2052.21,3519.10,3332.02,3625.01,349.31,316.88,1.15,0000 0000 0000 0000 000000
2013-10-07 00:24:12,0.00,0.08,0.00,23.66,26.47,29.18,5.93,29.83,998.50,2052.16,3519.04,3332.00,3624.97,350.05,317.53,1.16,0000 0000 0000 0000 000000
2013-10-07 00:25:13,-0.00,0.08,0.00,23.66,26.48,29.13,5.85,29.67,998.50,2052.18,3518.87,3331.96,3624.75,350.06,317.54,1.16,0000 0000 0000 0000 000000
2013-10-07 00:26:13,0.08,0.08,0.00,23.66,26.49,29.15,5.73,29.79,998.45,2052.15,3518.42,3331.63,3624.37,349.89,317.37,1.17,0000 0000 0000 0000 000000
2013-10-07 00:27:13,0.13,0.08,0.00,23.67,26.49,29.21,5.94,29.92,998.45,2052.12,3518.15,3331.25,3624.14,350.34,317.62,1.18,0000 0000 0000 0000 000000
2013-10-07 00:28:14,0.10,0.08,0.00,23.67,26.49,29.21,5.85,29.75,998.28,2052.11,3518.05,3331.10,3624.05,349.69,317.13,1.18,0000 0000 0000 0000 000000
2013-10-07 00:29:14,0.03,0.08,0.00,23.67,26.50,29.14,5.79,29.54,998.23,2052.15,3517.87,3331.04,3624.01,349.37,316.81,1.19,0000 0000 0000 0000 000000
2013-10-07 00:30:14,0.08,0.08,0.00,23.67,26.50,29.07,5.79,29.63,998.17,2052.17,3517.47,3330.99,3623.91,349.84,317.23,1.19,0000 0000 0000 0000 000000
2013-10-07 00:31:14,0.11,0.08,0.00,23.67,26.50,29.15,5.77,29.54,998.10,2052.16,3517.17,3330.95,3623.51,349.18,316.60,1.20,0000 0000 0000 0000 000000
2013-10-07 00:32:15,0.07,0.08,0.00,23.67,26.50,29.17,5.92,29.79,998.10,2052.11,3517.05,3330.79,3623.20,350.09,317.75,1.21,0000 0000 0000 0000 000000
2013-10-07 00:33:15,0.05,0.08,0.00,23.67,26.50,29.30,5.83,29.83,998.10,2052.09,3516.76,3330.42,3623.07,349.65,317.03,1.21,0000 0000 0000 0000 000000
2013-10-07 00:34:15,0.12,0.08,0.00,23.67,26.50,29.23,5.94,29.67,998.07,2052.16,3516.32,3330.18,3623.02,350.30,317.94,1.22,0000 0000 0000 0000 000000
2013-10-07 00:35:16,0.13,0.08,0.00,23.67,26.50,29.10,5.73,29.50,998.08,2052.24,3516.11,3330.06,3622.99,350.38,317.87,1.22,0000 0000 0000 0000 000000
2013-10-07 00:36:16,0.11,0.08,0.00,23.68,26.50,29.21,5.98,29.75,998.08,2052.17,3516.03,3330.01,3622.83,350.23,317.46,1.23,0000 0000 0000 0000 000000
2013-10-07 00:37:16,-0.01,0.08,0.00,23.68,26.50,29.23,5.81,29.71,998.09,2052.12,3515.76,3329.98,3622.43,349.44,316.57,1.24,0000 0000 0000 0000 000000
2013-10-07 00:38:16,0.07,0.08,0.00,23.69,26.50,29.21,5.87,29.79,998.08,2052.07,3515.30,3329.77,3622.16,350.22,317.46,1.24,0000 0000 0000 0000 000000
2013-10-07 00:39:16,0.10,0.09,0.00,23.69,26.51,29.19,5.79,29.75,998.07,2052.12,3515.09,3329.56,3622.05,350.35,317.48,1.25,0000 0000 0000 0000 000000
2013-10-07 00:40:17,0.10,0.09,0.00,23.69,26.52,29.14,5.85,29.88,998.06,2052.15,3515.00,3329.25,3622.00,349.51,316.87,1.25,0000 0000 0000 0000 000000
2013-10-07 00:41:17,0.10,0.09,0.00,23.69,26.52,29.14,5.86,29.75,998.06,2052.12,3514.68,3329.09,3621.89,349.90,317.22,1.26,0000 0000 0000 0000 000000
2013-10-07 00:42:17,0.08,0.09,0.00,23.69,26.52,29.08,5.83,30.00,998.06,2052.07,3514.27,3329.03,3621.45,349.88,317.50,1.26,0000 0000 0000 0000 000000
2013-10-07 00:43:18,0.06,0.09,0.00,23.69,26.52,29.14,5.73,29.79,998.06,2052.04,3514.09,3328.97,3621.18,349.33,316.70,1.27,0000 0000 0000 0000 000000
2013-10-07 00:44:18,0.05,0.09,0.00,23.69,26.52,29.14,5.75,29.79,998.06,2052.07,3513.91,3328.78,3621.06,350.14,317.44,1.28,0000 0000 0000 0000 000000
2013-10-07 00:45:18,0.09,0.09,0.00,23.70,26.52,29.13,5.75,29.83,998.06,2052.07,3513.48,3328.53,3621.00,349.60,316.94,1.28,0000 0000 0000 0000 000000
2013-10-07 00:46:18,0.11,0.09,0.00,23.70,26.52,29.16,5.92,29.67,998.06,2052.05,3513.19,3328.22,3620.98,350.56,318.04,1.29,0000 0000 0000 0000 000000
2013-10-07 00:47:19,0.08,0.09,0.00,23.71,26.52,29.20,5.86,29.92,998.06,2052.05,3513.07,3328.08,3620.87,349.95,317.11,1.29,0000 0000 0000 0000 000000
2013-10-07 00:48:19,0.07,0.09,0.00,23.72,26.53,29.20,5.92,29.92,998.06,2052.09,3512.99,3328.03,3620.45,350.04,317.33,1.30,0000 0000 0000 0000 000000
2013-10-07 00:49:19,0.09,0.09,0.00,23.72,26.53,29.14,5.74,29.83,998.06,2052.06,3512.63,3328.01,3620.17,349.89,317.18,1.31,0000 0000 0000 0000 000000
2013-10-07 00:50:20,0.05,0.09,0.00,23.71,26.54,29.20,5.85,29.71,998.06,2052.03,3512.25,3327.99,3620.06,351.10,318.29,1.31,0000 0000 0000 0000 000000
2013-10-07 00:51:20,0.05,0.09,0.00,23.72,26.54,29.19,5.71,29.46,998.06,2052.01,3512.09,3327.94,3620.02,349.09,316.83,1.32,0000 0000 0000 0000 000000
2013-10-07 00:52:20,0.02,0.09,0.00,23.72,26.55,29.26,5.92,29.67,998.06,2052.02,3512.02,3327.75,3620.00,350.43,317.68,1.32,0000 0000 0000 0000 000000
2013-10-07 00:53:21,0.06,0.09,0.00,23.73,26.55,29.28,5.71,29.79,998.06,2052.02,3511.74,3327.36,3619.76,349.52,316.86,1.33,0000 0000 0000 0000 000000
2013-10-07 00:54:21,0.14,0.09,0.00,23.74,26.55,29.36,5.89,30.00,998.06,2052.03,3511.33,3327.13,3619.37,350.01,317.26,1.33,0000 0000 0000 0000 000000
2013-10-07 00:55:21,0.15,0.09,0.00,23.75,26.55,29.34,5.92,29.88,998.06,2052.02,3511.13,3327.05,3619.13,349.80,317.21,1.34,0000 0000 0000 0000 000000
2013-10-07 00:56:22,0.07,0.09,0.00,23.75,26.55,29.34,5.87,29.75,998.06,2052.02,3511.00,3327.01,3619.04,348.97,316.32,1.35,0000 0000 0000 0000 000000
2013-10-07 00:57:22,0.04,0.09,0.00,23.75,26.55,29.29,5.81,29.50,998.06,2052.01,3510.64,3327.00,3619.01,350.09,317.33,1.35,0000 0000 0000 0000 000000
2013-10-07 00:58:22,0.05,0.09,0.00,23.75,26.55,29.26,5.75,29.92,998.06,2052.00,3510.24,3326.84,3618.89,350.31,317.30,1.36,0000 0000 0000 0000 000000
2013-10-07 00:59:22,0.11,0.09,0.00,23.75,26.56,29.29,5.87,29.71,998.06,2052.01,3510.08,3326.48,3618.46,350.18,317.41,1.36,0000 0000 0000 0000 000000
2013-10-07 01:00:23,0.14,0.10,0.00,23.77,26.57,29.29,5.99,29.79,998.06,2052.01,3509.93,3326.17,3618.17,350.50,317.68,1.37,0000 0000 0000 0000 000000
2013-10-07 01:01:23,0.11,0.10,0.00,23.77,26.57,29.28,5.95,29.67,998.06,2052.00,3509.59,3326.06,3618.06,350.93,318.07,1.38,0000 0000 0000 0000 000000
2013-10-07 01:02:23,0.07,0.10,0.00,23.77,26.57,29.29,5.80,29.83,998.06,2052.00,3509.24,3326.02,3618.01,349.26,317.08,1.38,0000 0000 0000 0000 000000
2013-10-07 01:03:24,0.05,0.10,0.00,23.77,26.57,29.24,6.08,29.88,998.06,2052.00,3509.09,3326.00,3617.99,351.04,317.86,1.39,0000 0000 0000 0000 000000
2013-10-07 01:04:24,0.02,0.10,0.00,23.78,26.57,29.31,5.73,29.79,998.06,2052.00,3509.03,3325.98,3617.87,348.79,316.13,1.39,0000 0000 0000 0000 000000
2013-10-07 01:05:24,0.03,0.10,0.00,23.78,26.57,29.30,5.84,29.71,998.05,2052.00,3509.01,3325.87,3617.48,350.44,317.74,1.40,0000 0000 0000 0000 000000
2013-10-07 01:06:24,0.07,0.10,0.00,23.78,26.57,29.35,5.91,29.88,998.06,2052.00,3508.72,3325.60,3617.18,349.83,317.32,1.41,0000 0000 0000 0000 000000
2013-10-07 01:07:25,0.13,0.10,0.00,23.79,26.57,29.35,5.77,29.96,998.05,2052.00,3508.29,3325.26,3617.07,349.36,316.92,1.41,0000 0000 0000 0000 000000
2013-10-07 01:08:25,0.12,0.10,0.00,23.80,26.57,29.31,5.87,29.75,998.04,2052.00,3508.10,3325.10,3617.02,350.27,317.83,1.42,0000 0000 0000 0000 000000
2013-10-07 01:09:25,0.06,0.10,0.00,23.81,26.58,29.35,5.93,29.96,998.03,2052.00,3508.03,3325.03,3616.97,350.26,317.56,1.42,0000 0000 0000 0000 000000
2013-10-07 01:10:26,0.03,0.10,0.00,23.81,26.59,29.32,5.96,29.88,998.05,2052.00,3507.91,3325.00,3616.90,350.78,317.63,1.43,0000 0000 0000 0000 000000
2013-10-07 01:11:26,0.04,0.10,0.00,23.81,26.59,29.29,5.88,29.83,998.03,2052.00,3507.50,3325.00,3616.63,350.02,317.02,1.43,0000 0000 0000 0000 000000
2013-10-07 01:12:26,0.07,0.10,0.00,23.82,26.60,29.29,5.76,29.67,997.99,2052.00,3507.19,3324.90,3616.29,349.20,316.29,1.44,0000 0000 0000 0000 000000
2013-10-07 01:13:26,0.11,0.10,0.00,23.82,26.60,29.29,5.83,29.71,997.95,2052.00,3507.06,3324.55,3616.11,350.40,317.32,1.45,0000 0000 0000 0000 000000
2013-10-07 01:14:26,0.10,0.10,0.00,23.82,26.60,29.31,5.76,29.54,997.91,2052.01,3507.01,3324.28,3616.04,350.58,317.65,1.45,0000 0000 0000 0000 000000
2013-10-07 01:15:27,0.07,0.10,0.00,23.82,26.60,29.31,5.64,29.63,997.84,2052.01,3506.77,3324.11,3616.00,348.90,316.11,1.46,0000 0000 0000 0000 000000
2013-10-07 01:16:27,0.06,0.10,0.00,23.82,26.60,29.36,5.88,29.83,997.73,2052.01,3506.34,3324.04,3615.97,349.83,316.62,1.46,0000 0000 0000 0000 000000
2013-10-07 01:17:27,0.07,0.10,0.00,23.84,26.61,29.39,5.83,29.71,997.72,2052.00,3506.10,3324.00,3615.57,349.56,316.64,1.47,0000 0000 0000 0000 000000
2013-10-07 01:18:28,0.08,0.10,0.00,23.84,26.62,29.44,5.72,29.83,997.67,2052.00,3505.79,3323.93,3615.22,349.26,316.36,1.48,0000 0000 0000 0000 000000
2013-10-07 01:19:28,0.12,0.11,0.00,23.84,26.62,29.36,5.64,29.71,997.63,2052.00,3505.33,3323.55,3615.08,349.22,316.30,1.48,0000 0000 0000 0000 000000
2013-10-07 01:20:28,0.13,0.11,0.00,23.84,26.62,29.33,5.79,29.75,997.59,2052.00,3505.12,3323.24,3615.02,349.89,317.13,1.49,0000 0000 0000 0000 000000
2013-10-07 01:21:28,0.09,0.11,0.00,23.84,26.62,29.42,5.72,29.58,997.61,2052.00,3505.03,3323.08,3614.93,349.67,316.35,1.49,0000 0000 0000 0000 000000
2013-10-07 01:22:29,0.05,0.11,0.00,23.85,26.62,29.45,5.85,29.67,997.62,2052.00,3504.87,3323.03,3614.55,350.03,316.78,1.50,0000 0000 0000 0000 000000
2013-10-07 01:23:29,0.07,0.11,0.00,23.84,26.62,29.46,5.77,29.54,997.61,2051.97,3504.43,3323.00,3614.22,350.11,317.16,1.50,0000 0000 0000 0000 000000
2013-10-07 01:24:29,0.07,0.11,0.00,23.84,26.63,29.41,5.64,29.63,997.63,2051.97,3504.17,3322.95,3614.09,348.96,316.31,1.51,0000 0000 0000 0000 000000
2013-10-07 01:25:29,0.06,0.11,0.00,23.85,26.64,29.43,5.85,29.63,997.63,2051.98,3504.06,3322.80,3614.03,350.25,317.49,1.52,0000 0000 0000 0000 000000
2013-10-07 01:26:30,0.05,0.11,0.00,23.86,26.65,29.39,5.77,29.71,997.63,2051.95,3504.02,3322.45,3614.00,349.88,317.20,1.52,0000 0000 0000 0000 000000
2013-10-07 01:27:30,0.06,0.11,0.00,23.86,26.65,29.45,5.94,29.88,997.63,2051.96,3503.94,3322.18,3613.91,349.91,316.91,1.53,0000 0000 0000 0000 000000
2013-10-07 01:28:30,0.10,0.11,0.00,23.86,26.65,29.46,6.02,29.71,997.59,2051.99,3503.53,3322.06,3613.50,350.55,317.07,1.53,0000 0000 0000 0000 000000
2013-10-07 01:29:30,0.12,0.11,0.00,23.87,26.65,29.37,5.76,29.75,997.61,2051.98,3503.22,3322.02,3613.21,349.23,316.28,1.54,0000 0000 0000 0000 000000
2013-10-07 01:30:31,0.08,0.11,0.00,23.87,26.65,29.38,5.98,29.83,997.59,2051.97,3503.08,3322.00,3613.08,350.22,317.10,1.55,0000 0000 0000 0000 000000
2013-10-07 01:31:31,0.02,0.11,0.00,23.87,26.65,29.46,5.82,29.71,997.59,2051.95,3503.02,3321.98,3613.01,350.27,317.34,1.55,0000 0000 0000 0000 000000
2013-10-07 01:32:31,-0.01,0.11,0.00,23.89,26.65,29.39,5.76,29.71,997.60,2051.84,3502.81,3321.88,3612.97,350.27,316.99,1.56,0000 0000 0000 0000 000000
2013-10-07 01:33:32,0.03,0.11,0.00,23.88,26.67,29.37,5.92,29.79,997.61,2051.85,3502.33,3321.57,3612.92,351.26,318.11,1.56,0000 0000 0000 0000 000000
2013-10-07 01:34:32,0.08,0.11,0.00,23.88,26.67,29.41,5.83,29.92,997.61,2051.72,3502.12,3321.30,3612.60,350.38,317.30,1.57,0000 0000 0000 0000 000000
2013-10-07 01:35:32,0.08,0.11,0.00,23.89,26.67,29.50,5.84,29.67,997.63,2051.81,3502.04,3321.11,3612.31,350.66,317.56,1.58,0000 0000 0000 0000 000000
2013-10-07 01:36:32,0.11,0.11,0.00,23.89,26.67,29.55,5.80,29.58,997.65,2051.86,3501.99,3321.04,3612.14,349.18,316.22,1.58,0000 0000 0000 0000 000000
2013-10-07 01:37:33,0.04,0.11,0.00,23.90,26.67,29.46,5.99,29.96,997.64,2051.66,3501.63,3321.00,3612.05,350.47,317.38,1.59,0000 0000 0000 0000 000000
2013-10-07 01:38:33,-0.06,0.11,0.00,23.90,26.67,29.45,5.79,29.75,997.63,2051.53,3501.26,3320.99,3612.02,349.16,316.52,1.59,0000 0000 0000 0000 000000
2013-10-07 01:39:33,-0.11,0.11,0.00,23.91,26.68,29.46,5.83,29.54,997.63,2051.36,3501.10,3320.96,3612.00,350.62,317.30,1.60,0000 0000 0000 0000 000000
2013-10-07 01:40:33,-0.06,0.11,0.00,23.92,26.69,29.46,6.01,29.88,997.62,2051.26,3501.03,3320.74,3611.93,350.42,317.31,1.60,0000 0000 0000 0000 000000
2013-10-07 01:41:34,0.02,0.11,0.00,23.92,26.70,29.50,5.86,29.83,997.61,2051.27,3500.89,3320.34,3611.57,350.15,317.06,1.61,0000 0000 0000 0000 000000
2013-10-07 01:42:34,0.12,0.11,0.00,23.92,26.70,29.61,5.69,29.83,997.63,2051.19,3500.42,3320.15,3611.21,349.53,316.50,1.62,0000 0000 0000 0000 000000
2013-10-07 01:43:34,0.07,0.11,0.00,23.93,26.70,29.59,6.00,29.92,997.59,2051.13,3500.16,3320.05,3611.08,349.83,316.79,1.62,0000 0000 0000 0000 000000
2013-10-07 01:44:34,0.04,0.11,0.00,23.93,26.70,29.54,5.85,29.79,997.57,2051.11,3500.05,3320.02,3611.03,349.75,316.42,1.63,0000 0000 0000 0000 000000
2013-10-07 01:45:35,-0.00,0.11,0.00,23.93,26.70,29.50,5.82,29.54,997.59,2051.11,3500.01,3320.00,3611.00,350.04,317.13,1.63,0000 0000 0000 0000 000000
2013-10-07 01:46:35,0.02,0.11,0.00,23.94,26.70,29.42,5.88,29.79,997.58,2051.14,3499.96,3320.00,3610.99,349.77,316.45,1.64,0000 0000 0000 0000 000000
2013-10-07 01:47:35,0.02,0.11,0.00,23.94,26.72,29.52,5.96,29.79,997.57,2051.10,3499.59,3319.93,3610.83,350.39,317.25,1.65,0000 0000 0000 0000 000000
2013-10-07 01:48:36,0.08,0.11,0.00,23.95,26.72,29.59,5.75,29.63,997.59,2051.07,3499.24,3319.73,3610.54,349.93,316.81,1.65,0000 0000 0000 0000 000000
2013-10-07 01:49:36,0.11,0.11,0.00,23.95,26.72,29.54,5.93,29.88,997.57,2051.06,3499.08,3319.40,3610.25,351.24,318.04,1.66,0000 0000 0000 0000 000000
2013-10-07 01:50:36,0.09,0.11,0.00,23.95,26.72,29.52,5.92,29.58,997.57,2051.03,3499.02,3319.15,3610.09,349.53,316.23,1.66,0000 0000 0000 0000 000000
2013-10-07 01:51:36,0.05,0.12,0.00,23.96,26.72,29.50,5.79,29.67,997.57,2051.06,3498.98,3319.05,3610.03,349.63,316.54,1.67,0000 0000 0000 0000 000000
2013-10-07 01:52:37,0.05,0.12,0.00,23.97,26.72,29.48,6.02,29.71,997.57,2051.06,3498.65,3319.02,3610.01,350.76,317.56,1.67,0000 0000 0000 0000 000000
2013-10-07 01:53:37,0.04,0.12,0.00,23.96,26.72,29.43,5.96,29.75,997.57,2051.06,3498.26,3319.00,3609.97,350.37,316.81,1.68,0000 0000 0000 0000 000000
2013-10-07 01:54:37,0.05,0.12,0.00,23.97,26.73,29.50,5.98,29.83,997.57,2051.06,3498.10,3319.00,3609.92,349.82,316.70,1.69,0000 0000 0000 0000 000000
2013-10-07 01:55:38,0.05,0.12,0.00,23.97,26.74,29.52,5.84,29.83,997.57,2051.09,3498.04,3318.94,3609.72,350.23,317.07,1.69,0000 0000 0000 0000 000000
2013-10-07 01:56:38,0.05,0.12,0.00,23.97,26.75,29.52,5.80,29.58,997.57,2051.05,3497.92,3318.60,3609.33,350.05,316.91,1.70,0000 0000 0000 0000 000000
2013-10-07 01:57:38,0.11,0.12,0.00,23.97,26.75,29.50,6.03,29.58,997.57,2051.02,3497.61,3318.36,3609.12,350.87,317.09,1.70,0000 0000 0000 0000 000000
2013-10-07 01:58:38,0.10,0.12,0.00,23.98,26.75,29.51,5.83,29.50,997.56,2051.02,3497.24,3318.16,3609.04,350.33,317.29,1.71,0000 0000 0000 0000 000000
2013-10-07 01:59:39,0.08,0.12,0.00,23.99,26.75,29.47,5.81,29.71,997.56,2051.02,3497.08,3318.05,3609.01,350.22,317.04,1.72,0000 0000 0000 0000 000000
2013-10-07 02:00:39,0.04,0.12,0.00,23.99,26.75,29.50,5.91,29.79,997.54,2051.02,3497.03,3318.02,3608.99,350.59,317.36,1.72,0000 0000 0000 0000 000000
2013-10-07 02:01:39,0.01,0.12,0.00,23.99,26.76,29.52,5.77,29.75,997.56,2051.01,3496.86,3318.00,3608.81,349.55,316.39,1.73,0000 0000 0000 0000 000000
2013-10-07 02:02:40,0.06,0.12,0.00,23.99,26.77,29.52,5.75,29.71,997.55,2051.00,3496.47,3317.99,3608.43,349.76,316.20,1.73,0000 0000 0000 0000 000000
2013-10-07 02:03:40,0.09,0.12,0.00,23.99,26.77,29.59,6.08,29.75,997.57,2051.00,3496.21,3317.88,3608.17,350.93,317.69,1.74,0000 0000 0000 0000 000000
2013-10-07 02:04:40,0.08,0.12,0.00,24.00,26.77,29.65,5.77,29.83,997.54,2051.01,3496.08,3317.79,3608.06,349.89,316.72,1.75,0000 0000 0000 0000 000000
2013-10-07 02:05:40,0.06,0.12,0.00,24.00,26.77,29.62,5.98,29.75,997.54,2051.00,3496.03,3317.43,3608.02,350.20,316.91,1.75,0000 0000 0000 0000 000000
2013-10-07 02:06:40,0.07,0.12,0.00,24.01,26.77,29.63,5.83,29.79,997.53,2051.00,3495.99,3317.18,3608.00,349.55,316.61,1.76,0000 0000 0000 0000 000000
2013-10-07 02:07:40,0.05,0.12,0.00,24.01,26.78,29.65,5.81,29.67,997.47,2051.00,3495.73,3317.07,3608.00,349.73,316.82,1.76,0000 0000 0000 0000 000000
2013-10-07 02:08:41,0.07,0.12,0.00,24.01,26.78,29.66,6.03,29.92,997.39,2051.00,3495.32,3317.02,3607.99,350.67,317.37,1.77,0000 0000 0000 0000 000000
2013-10-07 02:09:41,0.05,0.12,0.00,24.00,26.79,29.55,5.82,29.33,997.18,2051.01,3495.11,3317.00,3607.83,349.79,316.85,1.77,0000 0000 0000 0000 000000
2013-10-07 02:10:41,0.05,0.12,0.00,24.02,26.80,29.50,5.88,29.33,997.12,2051.01,3495.03,3316.99,3607.46,350.24,316.89,1.78,0000 0000 0000 0000 000000
2013-10-07 02:11:42,0.05,0.12,0.00,24.01,26.80,29.54,5.77,29.83,997.11,2051.00,3494.91,3316.92,3607.17,350.23,316.88,1.79,0000 0000 0000 0000 000000
2013-10-07 02:12:42,0.05,0.12,0.00,24.02,26.80,29.58,5.70,29.88,997.11,2051.02,3494.71,3316.80,3607.07,349.62,316.32,1.79,0000 0000 0000 0000 000000
2013-10-07 02:13:42,0.09,0.12,0.00,24.03,26.80,29.55,6.07,29.75,997.10,2051.01,3494.29,3316.45,3607.02,351.01,317.56,1.80,0000 0000 0000 0000 000000
2013-10-07 02:14:42,0.12,0.12,0.00,24.03,26.80,29.59,5.73,29.63,997.10,2051.01,3494.10,3316.18,3606.99,349.86,316.52,1.80,0000 0000 0000 0000 000000
2013-10-07 02:15:43,0.05,0.12,0.00,24.04,26.80,29.67,5.81,29.83,997.10,2051.00,3494.03,3316.07,3606.97,349.54,316.21,1.81,0000 0000 0000 0000 000000
2013-10-07 02:16:43,0.02,0.12,0.00,24.04,26.81,29.58,5.78,29.79,997.10,2051.00,3493.95,3316.02,3606.83,349.70,316.36,1.82,0000 0000 0000 0000 000000
2013-10-07 02:17:43,0.05,0.13,0.00,24.04,26.82,29.55,5.81,29.75,997.09,2051.00,3493.57,3316.00,3606.45,349.09,315.84,1.82,0000 0000 0000 0000 000000
2013-10-07 02:18:43,0.10,0.13,0.00,24.04,26.82,29.55,5.81,29.67,997.09,2051.00,3493.22,3315.98,3606.18,348.58,315.70,1.83,0000 0000 0000 0000 000000
2013-10-07 02:19:44,0.08,0.13,0.00,24.04,26.82,29.51,5.73,29.50,997.09,2051.00,3493.07,3315.84,3606.07,349.64,316.31,1.83,0000 0000 0000 0000 000000
2013-10-07 02:20:44,0.06,0.13,0.00,24.04,26.82,29.55,5.91,29.79,997.09,2051.00,3492.98,3315.49,3606.02,350.44,317.03,1.84,0000 0000 0000 0000 000000
2013-10-07 02:21:44,0.09,0.13,0.00,24.05,26.82,29.62,5.74,29.63,997.09,2051.00,3492.68,3315.19,3606.00,349.63,316.46,1.84,0000 0000 0000 0000 000000
2013-10-07 02:22:44,0.10,0.13,0.00,24.05,26.82,29.70,5.90,29.75,997.09,2051.00,3492.31,3315.07,3605.97,350.57,317.37,1.85,0000 0000 0000 0000 000000
2013-10-07 02:23:45,0.07,0.13,0.00,24.07,26.84,29.63,5.87,29.83,997.09,2051.00,3492.13,3315.02,3605.68,350.62,317.20,1.86,0000 0000 0000 0000 000000
2013-10-07 02:24:45,0.06,0.13,0.00,24.07,26.84,29.62,5.84,29.67,997.09,2051.00,3492.04,3315.00,3605.34,349.24,315.91,1.86,0000 0000 0000 0000 000000
2013-10-07 02:25:45,0.04,0.13,0.00,24.07,26.85,29.58,5.88,30.00,997.09,2051.00,3491.92,3314.98,3605.13,350.50,317.08,1.87,0000 0000 0000 0000 000000
2013-10-07 02:26:45,0.04,0.13,0.00,24.07,26.85,29.62,5.87,29.83,997.09,2051.00,3491.58,3314.96,3605.05,349.68,316.60,1.87,0000 0000 0000 0000 000000
2013-10-07 02:27:46,0.07,0.13,0.00,24.07,26.85,29.70,5.91,29.67,997.09,2051.00,3491.25,3314.80,3605.02,350.75,316.84,1.88,0000 0000 0000 0000 000000
2013-10-07 02:28:46,0.08,0.13,0.00,24.07,26.85,29.57,5.72,29.63,997.09,2051.00,3491.09,3314.38,3604.98,349.57,316.29,1.89,0000 0000 0000 0000 000000
2013-10-07 02:29:46,0.10,0.13,0.00,24.07,26.85,29.55,5.77,29.67,997.09,2051.00,3491.02,3314.15,3604.88,349.30,315.87,1.89,0000 0000 0000 0000 000000
2013-10-07 02:30:46,0.08,0.13,0.00,24.07,26.86,29.59,5.79,29.63,997.07,2051.00,3490.87,3314.05,3604.57,349.46,316.11,1.90,0000 0000 0000 0000 000000
2013-10-07 02:31:47,0.08,0.13,0.00,24.06,26.87,29.61,5.74,29.67,997.08,2051.00,3490.39,3314.01,3604.25,349.43,316.09,1.90,0000 0000 0000 0000 000000
2013-10-07 02:32:47,0.10,0.13,0.00,24.06,26.87,29.67,5.81,29.71,997.08,2051.00,3490.13,3313.99,3604.09,349.48,316.15,1.91,0000 0000 0000 0000 000000
2013-10-07 02:33:47,0.05,0.13,0.00,24.05,26.87,29.61,5.97,29.50,997.08,2051.00,3490.03,3313.90,3604.03,351.05,317.57,1.92,0000 0000 0000 0000 000000
2013-10-07 02:34:47,0.05,0.13,0.00,24.05,26.87,29.64,5.90,29.67,997.08,2051.00,3489.86,3313.70,3603.99,350.31,316.61,1.92,0000 0000 0000 0000 000000
2013-10-07 02:35:47,0.08,0.13,0.00,24.05,26.87,29.60,5.94,29.88,997.08,2051.00,3489.44,3313.37,3603.88,350.77,317.32,1.93,0000 0000 0000 0000 000000
2013-10-07 02:36:48,0.13,0.13,0.00,24.04,26.87,29.58,5.85,29.75,997.08,2051.00,3489.16,3313.13,3603.50,350.19,316.80,1.93,0000 0000 0000 0000 000000
2013-10-07 02:37:48,0.11,0.13,0.00,24.05,26.87,29.60,5.73,29.54,997.08,2050.99,3489.04,3313.05,3603.21,349.77,316.42,1.94,0000 0000 0000 0000 000000